Theta_e
319 318 317 317 316 315 316 316 315 314 313 314 314 312 312 312 310 309 309 308 307 308 307 306 306 307 307 308 306 306 306 306 307 306 307 306 306 307 306 307 308 305 307 306 307 307 308 307 305 305 305 307 306 307 307 306 306 306 304 301 300 300 300 297 296 297 300 298 297 299 301 304 303 304 303 302 302 303 307 301 300 299 298 298 297
319 318 316 316 315 315 316 314 314 313 313 313 313 312 311 311 309 308 307 307 307 307 306 307 306 306 306 305 305 305 305 305 305 306 307 306 305 308 307 307 306 304 305 305 304 307 304 305 305 304 304 305 306 307 307 306 306 305 303 302 301 301 300 297 296 297 299 300 299 299 299 302 303 301 304 302 300 301 304 303 300 299 297 296 295
319 317 316 316 315 315 315 314 313 313 312 312 312 311 310 309 309 308 307 307 308 307 306 305 305 305 305 305 305 304 305 305 305 305 305 306 306 305 306 305 306 305 305 304 304 304 304 305 304 304 305 304 303 303 304 305 305 305 304 303 302 301 301 300 298 297 298 298 298 298 298 299 302 301 300 301 299 298 299 302 303 301 300 296 295
318 317 316 316 315 315 314 314 313 312 312 311 311 310 310 309 309 308 308 307 307 306 306 305 305 304 305 304 304 304 305 305 304 304 305 305 305 305 304 304 304 304 305 304 303 303 303 303 303 303 304 304 302 303 303 304 304 304 303 302 302 302 303 301 301 298 297 299 298 299 299 298 299 298 298 299 299 299 297 297 300 300 298 299 296
317 317 317 316 315 315 313 313 312 312 311 311 310 310 309 309 309 307 306 307 306 306 307 305 304 304 305 304 305 305 305 304 304 304 304 304 305 305 304 304 304 304 304 304 308 303 303 303 303 303 304 304 302 304 305 304 305 305 304 304 303 304 304 303 301 299 299 298 299 299 298 298 299 299 298 299 300 301 301 298 299 299 298 298 299
317 316 315 315 314 314 314 314 313 313 312 312 311 310 309 309 308 308 307 307 306 307 306 305 306 304 304 304 305 305 304 304 304 304 304 304 304 304 304 304 304 304 304 304 305 303 303 303 303 303 304 305 303 303 303 304 304 304 303 303 303 303 303 301 301 300 300 299 299 299 298 300 299 300 299 299 301 301 301 301 301 300 299 299 301
317 316 316 315 314 315 315 315 315 314 313 312 311 310 309 309 308 308 309 307 307 307 305 305 306 305 304 304 305 306 305 304 304 304 305 304 304 304 304 304 304 304 304 305 305 304 303 304 303 303 304 304 305 304 304 303 305 303 304 304 304 304 303 302 301 300 299 298 297 298 298 299 299 300 301 299 301 300 301 299 299 299 298 299 300
316 316 316 315 315 315 315 315 315 313 311 310 310 310 310 309 309 308 309 308 308 307 306 306 306 305 304 304 306 307 305 305 304 305 305 305 304 304 304 304 304 304 304 304 304 304 303 304 304 304 304 305 306 305 305 306 303 303 303 304 304 304 303 302 301 300 299 299 299 299 297 297 300 299 301 299 300 299 300 297 299 297 297 297 297
315 315 315 314 314 315 315 315 314 313 312 310 311 310 310 309 309 310 310 310 310 309 307 307 306 305 304 305 306 307 307 306 307 306 306 305 305 304 304 305 305 304 304 304 304 304 304 303 303 303 307 312 308 308 307 308 307 305 303 302 303 304 303 302 303 300 300 300 299 298 298 298 297 299 297 297 297 299 299 295 296 295 296 298 298
315 314 314 313 314 315 315 315 314 314 313 312 313 313 312 311 310 311 311 310 310 308 306 306 306 306 305 305 305 306 307 307 309 307 307 307 305 306 306 305 305 305 305 304 304 304 305 304 307 313 312 311 307 303 302 304 308 309 307 304 304 303 303 302 301 302 301 300 300 300 299 299 298 299 299 297 295 296 297 297 298 293 294 294 296
313 314 314 314 315 314 314 314 314 313 313 313 314 315 314 313 311 311 310 309 309 309 307 307 305 305 305 305 305 307 308 309 305 300 301 304 307 306 306 305 304 305 305 304 305 306 306 306 305 309 312 313 308 301 300 300 300 302 304 305 307 306 303 302 302 301 302 302 300 298 300 300 298 296 296 297 295 297 297 296 296 294 293 292 293
301 302 304 306 308 311 312 312 311 311 312 312 311 311 312 312 313 312 312 312 310 309 310 308 307 306 305 304 303 305 306 306 302 300 298 299 304 309 307 307 306 306 306 306 307 305 307 308 306 306 307 307 307 304 302 300 299 299 300 299 300 302 303 305 303 300 299 300 299 300 299 300 298 297 295 295 295 294 293 294 291 294 292 291 289
299 299 300 301 301 303 304 304 304 304 305 305 305 305 305 305 306 309 312 312 310 311 308 308 307 306 305 305 304 303 303 302 298 298 298 297 297 303 307 307 308 307 307 308 308 308 308 308 308 309 310 313 312 304 302 300 297 296 298 299 297 296 297 297 300 304 303 303 302 301 300 298 297 298 298 298 296 297 293 292 290 290 289 289 289
298 299 299 299 299 299 300 300 300 301 301 301 301 300 300 301 302 303 305 306 308 308 308 307 307 308 306 307 308 306 307 301 295 296 296 296 295 297 305 307 308 308 308 309 310 309 309 309 309 309 307 306 307 304 303 299 297 298 298 297 297 298 296 296 295 297 302 305 303 303 303 300 302 299 300 297 298 296 295 293 292 292 291 291 289
298 298 298 298 299 299 298 298 298 299 299 298 298 297 297 298 299 299 299 300 301 302 303 303 305 305 306 305 306 307 307 299 293 292 295 296 296 296 301 304 307 307 309 309 309 310 310 310 310 310 309 308 308 307 303 300 299 298 298 299 298 296 295 295 295 296 299 302 305 306 306 303 301 300 300 298 299 297 296 295 294 293 293 291 290
297 298 298 298 298 299 298 298 298 298 298 297 297 296 296 296 296 297 297 297 298 298 299 300 301 302 304 304 302 305 307 301 296 293 293 294 296 300 302 303 305 307 307 308 309 310 310 309 309 309 309 309 305 301 301 303 303 303 301 299 296 295 294 294 292 292 295 298 302 305 304 302 300 301 300 297 296 294 294 294 293 293 293 291 289
296 297 297 298 298 297 297 297 297 297 297 297 296 296 295 295 295 296 295 295 295 296 297 297 299 299 301 302 303 304 306 302 298 296 294 294 297 301 302 303 303 306 307 308 309 309 309 309 309 308 308 307 302 296 297 299 304 304 303 302 298 296 296 295 292 292 292 293 294 295 295 294 294 294 294 294 295 295 295 294 292 291 290 288 289
296 296 296 297 297 298 298 297 297 296 296 295 295 295 295 295 295 295 294 294 294 294 295 295 296 297 297 299 300 302 303 302 299 298 297 295 297 304 306 304 305 306 307 308 307 308 309 309 311 309 307 306 300 295 295 300 304 304 303 300 297 295 293 292 294 293 292 292 291 291 291 291 292 292 292 293 293 295 295 292 290 289 289 288 286
296 296 296 297 297 297 296 297 296 296 296 296 296 295 294 294 294 293 293 293 293 293 296 294 294 294 296 297 302 300 299 300 298 296 296 296 298 302 304 303 303 305 306 307 306 306 307 307 307 307 305 302 298 296 296 300 307 306 304 301 299 298 296 292 293 292 292 293 291 292 292 293 294 293 294 293 293 295 292 292 291 292 290 288 287
296 296 296 297 296 296 296 296 296 295 295 295 295 295 295 294 293 293 292 293 292 292 293 293 292 293 294 295 295 296 297 298 298 295 295 295 296 300 303 304 304 305 305 307 308 307 304 305 304 298 297 297 297 296 295 296 305 307 304 302 301 300 296 293 294 295 294 294 292 293 292 292 291 291 291 293 295 295 291 291 291 292 292 290 288
297 297 297 296 296 296 296 296 295 295 295 295 295 295 294 293 293 293 292 292 292 292 292 292 292 291 292 292 293 293 297 297 297 294 294 294 294 295 301 304 305 306 305 304 305 306 306 305 304 301 297 296 296 296 295 295 297 305 304 305 304 301 295 294 294 294 295 293 292 291 291 292 291 290 290 291 292 291 290 290 289 291 291 288 285
295 295 295 295 295 295 295 296 296 295 295 295 293 294 294 294 294 294 293 292 291 291 290 291 291 290 291 291 291 292 295 297 295 294 293 293 293 293 297 300 303 305 306 306 305 303 304 305 304 301 297 295 295 295 295 295 294 300 303 299 294 292 296 297 294 293 293 293 292 291 291 292 291 291 291 292 291 292 290 290 290 288 286 288 287
293 293 293 293 294 294 294 294 294 295 294 294 294 293 293 293 293 293 292 292 291 290 290 290 290 289 289 290 290 290 291 293 294 293 293 292 293 293 292 294 294 299 303 305 306 307 305 303 303 300 296 294 294 294 294 293 293 298 296 294 293 292 294 295 294 295 294 293 292 291 291 292 292 291 291 290 289 290 290 289 289 289 290 289 287
291 291 291 291 291 292 292 293 292 292 293 293 293 292 292 292 293 292 292 291 290 290 289 290 289 289 289 289 290 290 290 290 292 292 292 292 292 292 292 291 291 297 301 303 305 307 306 303 301 297 295 294 293 293 293 293 295 294 294 294 292 292 297 295 294 295 293 292 291 290 291 290 290 290 289 289 289 288 288 288 287 287 287 287 286
291 290 290 290 290 290 291 291 292 291 291 292 291 291 291 291 290 290 290 290 289 288 288 288 288 287 287 288 288 289 290 290 290 291 292 292 292 292 291 291 291 290 294 299 301 303 301 298 297 295 294 293 293 292 292 292 292 293 294 293 294 296 296 296 295 293 292 291 291 291 290 290 290 290 289 289 288 288 288 287 286 285 285 286 286
290 289 288 288 288 289 289 289 289 289 289 289 290 291 290 290 289 290 289 288 288 289 288 288 288 288 287 288 288 288 289 290 290 291 292 293 292 292 292 292 293 293 293 295 294 295 294 294 294 293 292 292 294 295 295 295 292 292 293 293 297 296 296 295 293 292 291 290 290 290 289 288 289 289 289 289 289 288 287 287 287 286 287 288 288
289 288 288 288 287 287 287 288 288 288 288 288 288 289 289 288 288 289 289 288 288 288 288 288 288 287 287 287 288 288 288 288 289 290 291 291 291 292 292 293 293 293 294 295 294 295 296 296 297 293 293 292 292 293 294 292 291 292 293 296 298 297 296 295 294 292 290 290 289 289 288 288 288 288 287 288 287 286 288 288 287 285 286 285 285
288 287 287 287 287 287 287 288 288 288 288 288 288 288 288 288 288 288 288 288 287 287 287 287 286 287 286 287 287 287 287 286 288 288 290 290 290 290 291 291 292 293 294 295 297 298 297 292 291 292 292 292 293 292 290 290 290 290 294 295 296 295 295 293 292 291 291 290 289 287 285 286 285 286 287 287 287 286 287 287 286 285 285 284 283
286 286 286 286 287 287 287 287 288 287 287 288 287 287 288 289 289 288 287 287 287 288 288 287 287 287 286 286 286 286 286 286 288 289 289 289 288 289 289 290 291 291 293 292 292 292 292 292 289 290 290 289 289 289 289 289 287 290 292 292 292 293 292 292 290 289 289 288 287 286 285 285 285 286 286 286 286 285 285 286 286 285 283 283 283
285 286 285 286 285 286 288 287 287 287 287 287 288 288 288 291 290 288 288 290 290 290 289 287 289 289 287 287 287 287 287 288 289 289 289 289 289 289 289 289 289 289 290 291 290 288 288 288 288 288 288 288 288 288 288 288 288 288 288 289 290 291 290 290 290 288 288 288 287 286 285 286 285 285 285 285 283 283 285 286 284 283 280 281 281
286 286 287 287 286 287 287 287 287 286 287 286 287 287 287 286 290 290 290 290 290 290 289 289 289 289 289 288 288 289 289 288 288 289 289 289 289 289 289 289 289 289 290 288 288 287 287 288 287 286 286 287 287 287 287 287 288 288 288 288 289 289 288 288 288 287 287 286 286 285 285 286 285 285 285 284 284 284 283 283 283 284 283 282 280
286 285 285 286 287 287 286 287 287 287 287 286 286 286 287 287 288 290 290 290 290 290 289 289 289 289 289 289 289 287 288 288 289 289 289 289 289 289 289 289 289 289 289 290 289 287 287 287 286 285 284 285 285 286 286 287 287 287 287 287 287 288 288 287 287 287 286 286 285 285 286 285 285 284 284 283 283 284 284 283 283 282 281 281 281
284 284 283 285 285 285 285 286 286 286 286 285 286 287 287 287 287 287 289 290 290 290 289 289 289 289 289 289 289 288 288 288 289 289 289 289 288 288 289 289 289 289 288 289 289 288 286 285 283 283 285 285 286 286 286 286 286 286 286 286 286 287 287 287 287 288 286 286 285 285 285 285 284 282 281 282 283 282 282 282 282 281 280 280 279
284 284 284 284 284 285 286 286 285 285 284 285 287 287 287 287 286 286 286 286 287 288 289 289 289 289 289 289 289 289 289 289 288 288 288 288 288 288 288 286 288 288 289 289 288 288 287 285 283 283 284 285 286 286 286 286 286 286 287 287 287 287 287 288 287 286 286 286 286 285 285 285 284 283 282 281 281 281 281 279 278 278 278 278 279
283 284 285 286 285 284 283 283 283 284 284 285 287 288 287 286 285 284 284 284 284 285 285 287 288 288 288 288 288 289 289 288 288 288 288 288 288 288 288 285 285 285 287 289 289 288 287 287 286 285 284 284 285 287 287 287 287 286 286 286 286 287 287 287 287 286 286 286 286 285 284 284 283 283 283 282 281 280 278 277 277 277 278 278 278
284 283 283 284 284 284 283 283 283 283 285 287 287 286 285 283 284 284 283 283 284 284 285 287 287 288 289 289 289 288 288 288 287 287 287 287 288 287 285 283 282 283 284 284 286 287 288 289 288 288 287 287 286 287 289 288 288 288 287 287 287 287 287 287 286 286 286 286 285 284 284 283 282 282 281 281 281 280 277 276 276 277 277 277 277
283 284 284 283 283 283 283 284 285 287 286 285 284 283 283 283 283 283 283 284 284 285 286 287 288 288 289 287 288 288 288 287 286 287 287 287 287 286 286 285 284 284 283 284 286 288 289 289 290 289 289 288 288 289 288 288 288 288 287 288 287 287 287 286 286 286 286 285 285 285 284 283 283 283 283 280 277 277 276 276 276 277 278 280 282
283 283 283 282 283 283 283 284 287 286 285 284 285 283 283 283 283 283 283 284 285 286 286 287 287 286 286 286 290 287 285 286 286 286 285 285 284 284 285 286 286 286 286 285 286 288 289 289 290 290 289 290 289 289 288 288 288 287 287 287 287 286 287 286 286 286 285 285 284 284 284 283 283 282 282 282 280 277 276 276 275 277 280 282 282
282 282 283 284 284 283 283 283 284 283 284 284 283 283 283 283 283 283 283 284 285 285 285 285 285 285 285 286 286 287 287 285 282 281 282 284 285 286 287 287 286 286 286 287 288 288 290 290 289 290 290 290 289 289 288 287 287 286 287 286 286 286 286 286 286 285 285 285 284 284 283 282 280 280 281 280 278 277 276 276 278 279 280 280 279
283 283 282 283 283 283 283 283 283 283 284 283 283 282 282 283 282 283 283 283 283 283 282 283 285 285 284 284 285 286 286 284 281 282 283 283 283 285 286 286 287 287 286 286 288 289 289 289 290 289 290 289 289 288 287 287 287 287 287 287 286 286 286 286 285 285 285 284 283 283 282 280 279 278 277 278 277 275 276 276 277 279 280 280 281
282 281 283 283 283 283 282 283 283 283 283 283 282 282 282 282 282 281 281 281 281 281 282 283 284 284 283 285 286 286 285 285 285 285 285 284 284 283 284 286 287 286 286 287 287 288 288 288 287 288 288 288 287 287 287 287 287 287 286 286 286 286 286 286 285 285 284 284 283 282 280 279 278 279 278 277 280 276 275 276 278 279 280 281 282
283 284 283 282 282 282 282 282 283 283 283 282 283 282 281 282 281 280 281 281 281 282 282 283 283 283 285 286 286 286 286 286 286 286 286 286 286 285 284 286 287 286 285 286 287 287 287 287 287 287 287 287 287 287 287 286 286 286 286 286 286 285 285 284 284 284 284 283 282 281 280 279 279 279 279 281 273 273 275 276 277 279 281 283 284
282 282 282 282 282 282 282 282 282 282 282 282 282 283 282 282 282 281 280 280 282 282 284 284 284 285 284 284 284 285 286 287 286 286 286 286 286 286 286 286 286 287 287 287 287 286 286 286 286 286 286 286 286 286 286 286 287 286 286 286 285 285 284 283 283 283 282 282 281 280 280 280 280 276 275 275 273 274 276 278 278 279 282 283 284
282 283 281 281 281 281 282 281 281 282 282 283 282 282 282 281 281 281 281 280 282 283 284 285 285 284 283 283 284 285 286 286 286 285 285 285 285 285 285 286 286 286 286 286 286 286 286 286 285 285 285 286 286 286 286 287 287 287 286 285 284 284 284 283 283 283 283 282 281 281 280 278 277 276 277 276 274 276 276 277 279 280 281 281 281
282 283 282 281 281 281 281 281 281 281 282 282 281 283 283 282 281 281 280 281 283 283 285 285 284 283 282 282 282 284 285 285 285 285 284 284 284 285 285 285 285 285 286 286 286 286 286 285 285 285 285 285 285 285 285 285 285 285 285 285 284 284 284 283 282 281 282 282 281 280 279 278 276 275 274 274 275 275 277 277 278 282 281 281 281
281 282 282 281 281 281 281 280 281 280 281 280 280 283 285 283 281 281 281 282 283 284 285 284 282 282 282 281 282 283 283 283 284 283 283 283 284 284 285 285 285 285 285 285 285 285 285 285 285 284 284 283 283 283 283 283 283 282 282 282 281 280 278 278 278 280 281 281 281 280 278 277 275 276 277 274 276 276 277 278 279 280 281 282 283
281 281 281 281 281 281 281 280 281 282 282 282 282 284 285 283 282 283 282 284 285 285 284 283 282 282 281 282 282 282 283 283 283 283 283 284 284 285 285 285 285 285 285 285 285 284 284 284 284 284 283 282 282 282 282 281 282 281 281 281 280 279 278 277 278 278 278 279 280 280 279 278 276 275 276 276 277 277 278 278 279 279 280 280 281
280 280 281 281 281 281 281 280 282 284 285 284 283 284 285 285 284 284 283 283 284 284 284 283 283 282 282 283 283 283 284 284 284 284 284 284 285 285 285 285 285 285 284 284 284 284 284 283 283 283 282 282 281 281 281 281 281 281 281 281 280 280 279 279 279 278 277 277 278 278 279 278 276 276 276 275 276 277 278 278 278 279 279 278 280
281 281 281 281 281 281 280 281 282 283 285 285 285 285 285 286 285 283 282 283 284 285 286 285 285 285 285 285 285 285 285 285 285 285 285 284 284 285 285 285 285 284 284 283 283 283 283 282 282 281 280 280 280 279 279 279 279 279 279 279 279 279 279 279 279 278 277 276 276 277 277 278 278 277 276 276 276 275 276 276 277 279 279 278 279
282 281 281 280 281 281 281 281 280 281 282 283 285 285 285 285 284 283 282 284 286 286 286 286 285 286 286 285 285 285 285 285 285 285 285 285 285 284 284 284 283 283 282 281 281 281 280 280 280 279 279 278 278 277 277 277 278 278 278 278 278 278 278 279 279 279 279 278 278 277 276 275 274 274 274 273 272 272 274 276 278 280 278 277 277
282 281 281 280 280 280 280 280 280 280 280 280 282 284 285 285 284 283 282 284 285 285 285 286 286 286 285 284 283 283 283 284 285 285 285 285 284 284 284 283 282 281 280 279 278 278 278 278 278 277 277 277 276 276 276 276 276 277 277 277 278 278 278 278 278 279 279 278 278 278 277 277 276 276 275 274 273 273 278 278 277 276 277 277 277
Wind_Speed
7 7 7 9 10 9 7 7 7 6 6 6 7 6 5 4 3 4 4 3 3 4 3 3 3 4 4 3 4 4 4 3 2 3 4 4 3 4 4 4 6 4 5 4 2 3 4 5 4 4 4 6 6 6 5 5 4 5 5 6 5 4 6 4 5 3 1 2 3 5 2 4 3 4 4 3 1 1 4 3 3 3 3 4 4
4 4 4 7 9 8 7 5 6 6 7 6 7 6 5 4 4 4 4 2 2 4 3 2 3 4 4 3 3 3 3 3 2 3 4 4 3 3 4 4 4 4 4 4 4 3 4 6 4 4 4 6 6 6 6 6 6 6 5 7 6 6 4 4 3 4 6 1 3 1 1 2 4 2 6 5 2 2 4 3 3 3 3 3 4
7 6 4 6 8 8 8 6 6 6 7 6 6 5 4 4 4 5 4 3 1 1 3 3 3 3 3 3 3 2 3 3 1 3 3 4 4 3 3 4 4 4 4 4 4 4 4 5 4 4 3 5 4 4 4 5 5 7 8 6 7 7 5 4 5 3 6 5 2 4 3 3 6 6 4 2 2 4 3 4 5 3 3 3 3
4 8 8 9 8 6 6 4 7 6 7 5 6 4 4 4 3 4 4 3 3 1 1 2 3 3 3 2 1 2 2 2 2 2 4 4 4 4 2 3 3 4 4 4 4 4 5 5 4 4 4 5 4 4 3 4 5 5 6 5 6 8 6 4 5 6 4 6 4 6 4 5 6 2 0 2 2 3 3 2 2 3 3 1 1
8 5 10 10 9 8 7 6 3 6 5 4 4 4 4 4 3 4 3 3 2 2 1 1 2 2 3 3 2 2 3 2 2 2 1 2 4 4 3 2 2 2 3 4 4 4 4 5 4 4 5 6 4 5 5 5 5 6 6 5 6 6 4 4 4 4 6 7 5 3 2 4 2 2 3 4 1 0 0 1 1 2 1 0 0
9 1 6 8 6 5 5 2 3 4 6 5 5 4 4 4 3 2 3 3 2 2 2 1 1 2 2 2 2 3 2 3 3 4 3 2 2 3 3 2 2 3 3 3 4 3 4 4 4 4 5 6 5 3 3 5 4 4 5 4 4 3 4 3 3 4 6 7 6 4 2 4 3 1 4 5 6 3 2 3 3 2 2 3 4
8 8 7 8 9 7 6 4 4 5 6 5 4 3 3 3 3 3 2 3 4 3 3 3 2 2 2 2 3 3 3 3 3 3 3 3 3 3 2 2 2 2 3 4 4 3 3 4 4 3 4 4 5 5 4 4 4 4 5 5 4 5 4 4 4 4 5 5 3 3 4 2 2 3 0 2 3 4 5 3 2 2 4 4 4
6 7 6 5 7 6 4 2 1 1 3 3 3 3 2 2 2 2 2 3 3 3 4 5 4 3 3 4 3 1 2 2 1 1 2 3 3 3 3 3 3 3 3 3 3 3 4 4 4 4 4 5 6 5 5 5 3 4 2 4 5 5 5 4 4 5 5 5 6 6 3 3 0 1 1 3 2 1 1 3 7 3 3 2 1
6 5 6 7 6 5 4 3 2 3 3 2 2 2 2 2 2 1 1 1 1 2 3 3 3 3 2 3 2 2 3 3 3 3 2 1 2 4 4 4 4 4 3 3 3 2 3 3 3 4 4 6 7 7 8 7 6 5 3 3 4 5 4 4 5 5 5 5 5 1 3 3 3 5 3 3 6 8 4 2 3 2 4 6 2
8 8 9 8 6 5 5 4 3 5 4 2 2 4 3 1 2 0 0 1 2 1 3 3 3 2 4 4 2 2 3 3 4 7 6 4 4 3 3 2 3 3 3 3 4 3 4 3 3 4 6 7 8 8 8 8 7 7 8 6 6 5 5 6 6 6 6 6 7 6 5 6 6 5 5 4 2 3 5 4 6 2 3 3 0
9 9 9 7 6 6 5 5 7 6 5 5 4 4 5 3 2 1 2 1 1 1 2 3 2 3 3 4 5 4 4 4 8 8 9 9 5 4 4 4 3 3 3 4 5 5 4 4 4 4 4 4 4 7 7 8 8 7 9 10 9 9 7 6 6 5 6 6 4 4 6 7 6 4 4 4 2 5 5 5 7 5 5 5 3
10 10 8 8 8 8 7 8 8 7 7 7 7 7 7 6 6 5 4 5 4 3 5 3 2 1 2 1 3 4 4 6 6 7 8 9 8 6 5 5 5 4 4 4 5 4 5 5 4 3 3 4 3 3 5 7 8 8 7 9 8 7 5 7 6 4 4 5 4 6 5 7 5 5 4 4 4 3 4 5 4 5 4 3 2
12 12 11 11 11 10 10 10 9 9 8 8 7 8 9 9 9 9 8 5 4 6 4 4 4 3 3 1 2 3 4 5 7 8 8 9 9 6 4 4 5 5 5 5 5 5 6 6 6 4 5 4 1 1 1 1 5 6 5 1 3 3 3 4 3 5 6 5 6 6 7 5 4 6 6 7 5 7 4 4 3 4 4 4 5
12 12 12 12 11 11 11 10 11 9 8 8 8 9 9 8 8 7 6 7 7 6 6 6 5 4 3 1 1 1 1 4 5 8 9 9 8 5 4 4 4 5 5 6 6 6 7 7 7 7 5 4 4 4 4 3 2 1 0 1 2 4 4 2 3 2 6 6 6 7 6 5 8 7 6 7 9 8 8 6 5 5 5 4 2
13 13 13 12 12 11 11 11 11 10 9 7 7 8 7 6 7 5 6 6 7 7 6 6 6 5 5 5 5 5 4 4 5 6 7 8 8 6 4 4 4 4 5 5 6 7 7 7 7 8 7 7 7 7 6 5 4 4 2 1 1 1 2 5 6 5 3 3 5 7 6 7 4 5 7 5 4 6 6 7 8 6 6 4 6
13 13 13 12 12 11 11 11 11 11 11 10 9 8 8 8 8 5 5 6 5 5 6 6 7 7 6 5 4 4 4 4 6 8 10 10 6 3 4 5 6 7 6 6 6 7 6 5 6 7 7 8 9 12 9 7 6 4 3 3 2 1 1 3 2 0 3 4 5 6 3 5 6 8 7 6 6 6 7 7 6 6 7 4 3
13 13 12 11 11 10 10 10 11 11 10 10 10 9 9 9 7 6 7 7 7 7 6 5 5 6 7 7 7 7 6 8 8 6 6 7 5 3 3 4 5 7 8 7 6 6 6 5 6 6 6 6 7 11 12 11 5 5 6 7 5 5 6 2 3 8 5 4 5 3 6 7 9 10 10 10 8 7 7 7 5 5 6 3 0
11 12 11 10 10 9 9 10 10 9 10 10 9 9 8 6 7 6 7 7 7 7 5 7 7 7 7 7 7 7 7 10 14 13 12 9 4 5 4 4 5 5 6 6 4 5 6 10 9 6 6 5 6 10 11 9 5 7 7 7 6 6 5 1 1 4 7 10 9 9 9 9 10 10 10 10 9 6 8 6 6 6 5 5 4
9 10 10 9 9 9 9 9 9 9 9 8 7 9 9 7 6 6 6 6 6 6 7 7 7 7 7 6 9 8 7 9 13 15 14 13 7 5 5 4 4 6 7 7 5 6 5 7 10 9 8 8 11 11 13 12 9 8 9 8 8 9 7 6 5 4 4 6 3 4 5 6 5 5 4 7 6 5 4 6 6 6 6 4 5
8 8 9 9 8 9 8 8 8 8 8 7 6 6 5 6 8 7 7 6 6 6 6 6 7 6 6 6 7 7 8 8 9 14 14 13 9 4 4 4 6 7 7 8 8 7 6 6 7 12 13 12 14 15 14 14 10 8 7 8 8 11 6 6 6 8 7 7 5 3 4 4 5 4 4 5 6 4 5 6 6 6 6 6 5
7 7 7 6 6 6 6 5 6 6 5 5 4 5 6 6 7 7 7 7 6 7 6 6 6 6 6 5 6 6 6 8 10 14 14 14 12 8 3 4 5 6 7 7 7 8 7 6 6 9 12 14 15 15 15 16 14 8 10 10 12 6 10 7 5 6 8 6 6 5 5 5 4 4 4 5 5 5 4 3 3 4 7 6 6
5 5 6 5 5 4 4 4 5 5 5 5 6 6 5 5 5 5 5 5 5 5 4 4 5 6 5 4 4 5 6 7 7 12 14 15 14 10 5 4 5 7 8 8 7 7 8 8 7 10 13 13 13 14 15 15 15 5 8 7 8 13 12 7 7 5 5 6 6 6 6 5 6 6 6 5 4 4 5 5 4 4 3 6 8
5 5 5 5 5 5 5 5 5 4 4 4 4 4 3 4 3 3 4 4 4 4 4 4 4 4 5 5 4 4 5 5 8 8 13 14 14 13 9 6 8 6 8 9 9 9 7 7 9 12 12 13 13 13 12 13 9 8 12 13 14 14 10 7 8 7 7 6 6 6 6 6 6 6 6 6 5 5 6 6 5 6 5 4 3
4 4 4 3 3 3 3 4 4 4 4 4 4 4 3 2 2 2 2 2 3 3 4 4 3 4 5 5 5 6 6 6 7 10 9 12 14 14 12 10 8 6 7 8 7 8 9 8 9 12 12 13 14 13 13 12 10 14 14 14 13 11 8 9 8 7 7 7 7 7 6 5 6 6 5 5 6 6 6 5 5 4 5 5 4
4 4 4 4 3 3 3 3 3 3 3 3 3 3 3 2 3 2 2 3 2 3 4 3 3 4 5 5 6 5 5 5 6 8 12 12 11 11 11 11 11 9 7 7 8 9 11 14 13 12 12 12 14 14 11 12 15 14 14 13 12 8 9 8 8 8 8 8 7 7 6 6 6 6 6 6 5 5 6 4 4 4 3 4 4
5 4 4 4 3 3 3 3 2 2 1 1 1 1 1 1 2 3 2 3 2 3 4 3 4 4 5 5 6 6 7 7 7 8 8 10 10 12 13 12 10 9 9 10 12 15 15 14 14 12 11 10 8 7 8 9 11 12 12 12 8 8 8 9 8 9 8 7 8 9 7 6 6 7 7 7 7 6 6 5 6 4 3 4 5
4 4 4 4 3 3 4 3 2 2 2 2 2 2 2 2 3 3 3 5 4 4 4 4 5 5 6 6 6 6 6 6 7 8 7 8 8 10 11 11 12 9 6 6 7 8 10 11 8 8 6 8 8 5 4 2 3 5 6 8 8 8 9 11 11 10 9 8 6 6 6 6 6 6 5 5 6 4 4 6 5 4 4 4 5
4 4 4 3 3 3 3 4 3 4 4 4 5 6 5 4 4 5 5 6 6 6 5 5 5 6 6 6 6 6 6 5 6 7 8 8 9 9 9 8 8 7 8 7 6 5 4 2 1 1 2 2 2 1 1 3 5 6 7 8 7 7 7 9 8 7 6 7 7 8 7 7 7 6 4 5 5 5 4 5 5 3 3 3 3
4 4 3 3 4 3 3 4 4 6 5 5 5 4 6 6 6 5 4 3 4 5 6 6 5 5 4 5 6 8 6 6 7 7 9 11 11 10 9 9 8 8 8 8 5 3 1 1 1 2 4 4 4 6 6 6 4 5 7 7 7 8 8 8 10 9 9 10 10 9 8 7 6 5 5 5 5 5 3 5 4 6 1 3 5
3 4 3 3 3 4 4 5 4 3 3 5 4 4 4 5 5 6 6 8 11 10 7 5 6 6 6 6 5 7 8 8 11 15 15 15 15 15 14 13 13 12 13 9 3 0 0 1 1 2 1 1 2 3 6 6 6 6 6 7 8 9 8 8 9 9 8 9 9 9 8 7 6 6 6 6 5 3 1 3 3 3 4 3 4
4 4 5 5 5 5 5 5 5 4 5 5 5 5 6 3 6 9 9 10 10 11 11 12 12 10 7 7 6 10 12 13 14 14 15 15 16 15 15 14 15 15 10 3 1 2 3 3 4 3 2 3 3 1 4 4 2 7 7 7 7 9 9 9 9 8 9 9 8 8 8 8 7 6 6 6 6 5 5 3 5 5 5 5 3
6 6 6 5 6 5 5 4 5 5 6 5 5 6 6 8 7 4 7 9 11 12 12 12 12 12 13 11 8 6 9 12 14 15 16 17 16 15 15 16 17 14 9 9 4 4 3 4 4 4 3 3 2 2 2 1 4 4 3 8 7 7 10 10 9 10 9 9 9 8 7 7 6 6 6 6 6 5 5 4 5 5 4 3 2
3 4 4 4 4 4 5 5 5 5 5 5 5 5 5 6 8 9 6 5 8 10 11 10 10 11 11 12 12 12 13 14 16 15 15 15 15 14 15 16 13 5 7 4 5 4 4 5 5 4 5 5 3 5 5 5 4 2 4 2 5 5 8 9 9 10 9 9 8 8 7 7 6 6 5 5 6 5 5 5 4 4 4 2 1
2 2 3 3 3 4 4 4 4 5 5 4 5 5 5 5 6 7 9 11 9 4 4 5 8 11 11 13 13 14 14 14 14 14 14 13 12 13 11 5 3 7 7 4 3 4 4 5 4 4 4 4 5 6 6 5 5 3 4 4 4 6 7 7 9 8 8 8 8 7 7 7 6 7 6 5 5 6 6 5 4 4 2 1 0
2 2 3 2 1 2 3 4 5 5 5 6 6 6 6 6 5 6 7 7 9 11 12 11 8 7 10 11 14 16 15 15 14 13 13 13 12 11 4 1 0 0 1 2 4 5 5 6 6 5 5 5 6 6 7 8 6 4 5 5 4 5 6 7 7 8 7 7 7 6 6 7 6 6 7 7 6 6 5 4 3 2 2 0 1
2 2 1 1 1 3 3 3 4 4 5 6 5 5 5 5 5 6 6 5 6 8 10 9 8 9 12 12 13 13 14 14 13 12 11 10 10 3 2 5 3 3 4 4 4 5 5 5 4 5 5 5 6 7 9 9 8 8 9 9 9 7 7 7 6 7 7 7 7 7 6 6 6 7 6 6 6 7 5 4 2 1 1 1 2
2 1 1 2 2 3 3 4 4 5 5 5 4 5 5 4 4 5 5 5 6 7 7 9 10 11 8 5 7 11 13 13 13 12 9 8 5 3 3 2 4 4 3 4 4 4 5 5 5 5 6 6 6 6 7 8 8 8 7 8 8 8 7 6 7 7 7 7 6 6 6 6 6 6 8 7 5 4 3 2 1 1 3 4 2
2 2 2 2 3 3 3 5 5 5 5 5 5 4 5 5 5 5 5 6 7 7 7 8 7 7 9 10 11 7 9 10 10 8 7 6 4 1 1 3 3 5 5 4 4 4 5 4 4 6 6 6 6 5 5 6 7 7 7 7 6 6 9 9 9 8 8 7 7 6 6 6 6 6 7 7 6 5 2 3 2 2 0 1 1
2 3 3 4 3 3 4 4 5 5 5 5 5 5 5 5 5 5 5 5 6 6 6 6 6 7 7 7 8 7 8 8 8 7 7 7 5 2 2 4 4 5 4 4 4 4 4 4 4 4 4 5 6 6 6 6 6 6 7 7 6 6 7 6 7 7 7 7 6 5 6 6 6 6 7 6 5 5 4 3 1 1 1 1 2
2 2 3 3 3 3 3 3 3 4 5 5 5 5 5 4 4 5 5 4 5 5 5 5 6 6 7 6 7 7 7 7 7 6 6 6 6 5 4 4 4 5 4 3 2 2 2 3 5 5 5 5 6 6 6 6 6 6 6 6 6 6 6 6 6 7 7 6 6 5 6 6 6 6 6 6 6 5 4 2 1 3 3 3 3
2 1 2 3 2 3 3 2 2 3 3 4 4 4 4 4 4 4 3 3 4 4 4 5 5 5 5 8 10 6 3 5 6 5 5 5 5 5 5 4 3 4 3 1 1 2 3 3 3 3 4 5 5 6 7 7 7 6 6 6 6 6 5 5 6 6 6 6 6 6 6 6 6 7 6 5 3 4 2 2 2 4 3 2 2
1 1 2 2 2 2 3 3 3 4 4 4 4 4 4 3 2 2 2 2 3 4 3 4 4 5 7 13 11 8 5 5 5 5 5 5 5 5 5 5 5 4 3 3 3 3 4 4 4 3 4 4 5 6 7 6 6 8 8 7 6 5 5 5 5 6 6 6 6 6 6 6 6 6 5 5 4 3 1 2 5 3 0 0 0
2 1 1 2 2 2 2 3 3 5 4 3 4 4 3 1 1 0 1 3 4 4 4 5 5 6 7 9 9 8 5 5 4 6 6 5 5 5 5 5 5 4 4 4 4 4 5 5 6 5 5 5 6 6 7 6 7 7 7 6 6 5 5 5 5 5 5 6 6 6 7 6 6 5 6 4 2 1 1 0 1 1 0 0 1
1 0 1 1 1 1 1 2 2 2 3 4 3 2 2 1 1 2 3 3 3 4 4 4 5 6 6 7 7 6 5 5 5 5 5 5 5 5 5 5 5 4 5 5 5 5 7 7 8 7 7 7 7 7 6 5 5 6 6 6 5 6 6 6 6 6 6 6 6 6 6 6 6 6 5 3 2 2 2 1 0 1 0 0 1
2 0 1 2 2 2 2 2 2 2 3 3 3 2 2 3 3 3 3 3 4 4 4 5 5 5 5 5 5 5 6 5 5 6 6 6 5 5 5 5 5 5 6 6 5 5 7 7 7 8 8 6 6 7 7 7 6 4 4 5 6 6 5 5 5 4 6 7 7 6 6 6 6 6 5 2 2 2 1 0 0 1 1 1 1
2 1 0 1 2 1 2 2 2 2 2 3 3 2 3 3 3 3 3 3 4 4 4 5 4 4 5 4 4 5 5 5 6 5 5 6 6 6 5 6 6 6 6 6 6 6 7 7 8 8 8 8 8 7 6 6 6 6 6 5 5 4 4 4 4 5 5 7 7 6 6 6 5 5 5 4 2 1 1 0 0 0 0 0 1
2 1 1 0 1 1 1 2 2 3 4 3 2 3 3 3 3 3 3 4 4 4 5 4 4 4 4 4 4 4 5 5 5 6 6 6 6 6 6 6 7 7 7 7 7 8 9 10 9 9 8 7 7 7 7 6 6 6 6 4 4 5 4 4 4 4 5 5 7 7 6 6 6 4 5 3 2 1 0 0 0 0 0 1 1
2 2 1 1 1 0 1 2 3 3 3 3 2 2 2 3 4 4 3 4 5 4 4 4 4 4 4 4 4 4 4 5 5 6 6 6 6 6 7 7 8 7 8 9 8 8 8 8 8 8 7 7 6 6 5 5 5 4 5 4 4 4 5 5 5 5 4 4 5 6 7 6 5 5 3 4 2 1 1 0 1 1 2 1 2
3 3 2 1 0 0 1 2 2 2 2 2 2 2 3 3 3 4 3 3 4 4 3 3 3 3 4 3 4 4 4 5 6 6 6 6 6 6 6 7 7 8 8 8 8 8 7 7 7 6 6 6 6 5 5 5 5 5 5 5 6 8 8 7 5 5 5 5 5 5 5 5 5 4 3 2 1 1 1 0 1 1 1 1 4
3 3 3 2 1 1 0 0 1 2 2 2 2 2 3 3 3 3 2 3 3 3 3 3 3 3 4 4 5 5 5 5 5 5 5 5 5 6 6 7 8 7 7 7 7 6 7 7 7 6 6 6 6 5 5 5 4 4 4 5 7 7 7 6 5 5 4 3 4 4 5 7 6 4 2 2 2 2 2 1 1 2 1 1 2
3 3 3 2 2 1 1 1 2 2 2 2 2 2 3 2 2 3 3 3 3 3 3 3 3 4 4 4 4 4 4 4 4 4 5 5 5 5 6 6 7 7 7 7 7 6 6 6 6 6 6 6 5 5 4 4 4 4 5 6 5 5 4 3 3 5 5 4 4 4 4 4 4 4 2 1 1 2 2 1 1 1 1 1 1
Wind_Direction
139 141 141 132 129 130 132 131 128 129 124 127 127 132 128 126 124 131 110 118 129 119 119 116 108 110 112 116 126 126 117 101 90 107 103 96 79 106 95 100 105 91 105 89 85 111 98 100 92 89 117 127 139 137 142 144 136 144 143 139 142 153 145 125 130 140 192 217 206 218 190 132 189 206 230 234 208 152 170 196 206 214 239 252 269
87 105 110 124 123 126 124 123 124 123 121 125 128 131 131 130 135 115 126 134 120 128 110 94 94 103 110 108 109 115 114 116 125 117 114 100 83 84 106 102 101 97 96 101 77 81 98 104 99 91 104 125 139 146 151 145 152 150 170 161 165 177 184 111 141 137 191 239 250 305 129 159 215 173 204 225 195 158 188 210 216 210 231 242 262
78 68 77 118 130 133 130 128 122 123 121 130 128 130 130 128 131 131 131 130 74 109 133 106 96 93 91 102 110 112 118 116 110 120 121 125 114 81 101 121 127 125 115 120 115 109 93 102 114 115 113 102 109 128 132 143 156 167 178 175 169 178 192 160 125 145 171 217 208 191 185 171 199 221 214 211 172 182 185 213 219 221 228 208 246
63 88 66 44 36 51 61 77 117 121 126 134 130 130 131 136 131 126 129 119 123 69 63 95 100 92 94 94 108 125 107 102 99 121 142 137 126 127 116 115 130 141 139 138 132 120 130 115 129 120 116 112 126 123 134 140 152 160 167 181 170 174 176 162 156 141 174 167 234 194 201 172 239 261 84 159 175 208 223 216 180 226 230 195 230
5 22 75 54 47 46 50 49 60 107 108 116 123 130 139 138 133 137 120 110 109 109 92 75 95 108 123 141 146 169 163 153 132 126 144 143 141 142 140 128 140 151 154 149 147 138 142 141 160 141 127 122 144 146 159 155 160 151 162 169 173 170 153 157 151 130 145 181 202 236 182 212 211 173 180 157 195 185 34 164 222 235 260 52 163
113 56 88 96 92 65 60 45 79 116 130 134 137 146 143 140 137 129 136 122 112 151 155 156 155 187 151 182 188 193 174 178 171 176 175 156 138 140 145 152 166 170 175 170 157 163 153 158 166 157 141 139 167 165 155 149 139 145 150 162 153 136 141 133 127 143 165 184 173 199 257 196 205 175 203 168 149 135 65 44 59 37 90 68 25
134 151 167 151 136 153 146 178 158 158 142 139 132 142 145 140 133 142 164 138 143 167 187 189 207 194 189 170 221 196 180 187 177 171 169 167 164 156 162 174 190 203 201 192 184 188 179 165 164 166 150 150 151 166 156 147 153 166 168 160 153 145 149 164 154 157 172 175 207 204 203 250 174 177 244 167 125 147 154 123 67 16 48 85 85
145 139 134 126 131 143 152 149 130 89 96 127 140 140 135 106 96 121 135 153 157 174 186 200 208 182 207 194 219 229 157 181 195 186 171 171 167 186 187 192 202 227 229 226 207 203 204 195 176 176 172 177 168 172 157 158 154 175 191 148 149 151 166 166 162 164 172 188 193 205 207 188 224 21 84 104 108 38 159 141 159 143 89 35 100
120 106 100 90 77 81 70 41 36 77 69 77 107 104 100 109 109 101 140 219 221 170 199 186 181 196 216 219 230 221 175 206 202 181 163 161 177 184 202 201 201 213 234 251 264 266 259 241 218 190 191 195 194 176 180 163 154 169 193 161 159 163 167 171 176 170 184 185 210 182 165 186 214 162 151 146 183 192 181 123 131 130 144 117 100
85 78 79 84 87 82 87 77 61 56 59 65 85 81 50 57 101 104 232 251 263 159 158 148 144 207 210 211 215 227 229 222 224 205 179 170 182 185 190 204 207 213 220 248 275 282 273 277 276 248 215 206 205 202 196 187 183 166 171 168 166 162 170 175 178 185 173 186 203 182 195 217 206 198 187 213 153 104 119 139 139 162 98 100 353
62 66 73 76 79 75 70 64 57 60 65 50 41 65 72 37 44 58 61 51 34 52 119 133 148 167 231 217 197 214 230 231 229 216 210 186 171 176 180 205 200 200 208 214 234 246 261 268 272 278 262 248 239 231 218 213 208 191 168 173 171 165 165 177 196 177 180 195 184 182 194 209 224 197 194 159 148 163 165 151 133 136 151 146 188
70 68 66 66 61 62 57 59 57 37 44 47 48 43 38 44 44 33 22 24 15 48 62 67 75 101 171 199 236 240 235 245 249 231 232 223 205 196 196 194 197 204 205 214 229 234 243 251 257 255 250 233 222 210 229 237 241 236 195 186 191 194 180 171 176 194 200 183 188 207 180 206 199 178 175 144 148 103 119 134 137 146 133 134 168
66 59 55 59 58 57 58 61 60 59 51 52 52 58 57 50 38 24 12 356 32 35 13 30 44 70 118 156 245 262 269 297 305 287 258 241 238 237 222 219 208 214 209 212 214 220 224 232 247 247 241 237 205 148 173 348 5 354 336 206 160 162 218 269 252 197 173 184 193 214 208 185 167 210 195 174 151 139 146 111 130 135 144 142 189
62 59 54 51 53 52 51 52 50 44 41 44 51 55 55 52 46 31 12 21 37 29 17 16 4 7 6 58 175 209 249 277 266 265 267 264 256 250 270 250 236 230 224 219 221 219 214 212 222 235 230 207 188 170 152 129 134 133 70 12 353 357 2 358 336 273 198 193 189 214 222 175 195 194 189 156 149 160 157 161 147 136 145 153 171
56 55 54 50 48 50 50 49 47 38 30 28 42 55 57 54 52 36 36 32 29 30 20 14 12 7 357 345 344 331 301 287 266 256 253 255 252 209 244 270 284 272 251 233 227 229 226 219 212 218 214 208 207 183 158 157 155 161 139 162 121 47 4 3 1 357 335 280 228 223 213 204 196 161 154 180 157 155 155 160 168 153 130 97 65
55 52 51 49 48 46 49 50 49 43 34 25 25 37 40 41 38 26 36 31 27 28 22 23 13 1 356 358 356 326 305 321 321 314 310 300 291 229 215 223 236 248 257 255 246 237 236 228 228 226 216 215 213 184 169 165 174 155 182 206 170 193 126 167 161 77 277 280 285 274 230 174 170 154 149 137 109 109 90 87 88 94 107 98 118
53 53 50 50 48 47 47 45 45 42 36 30 21 19 25 24 27 24 33 26 25 24 19 12 2 4 360 1 359 338 332 331 333 307 283 291 303 268 246 235 238 242 244 243 239 238 229 220 221 229 225 224 202 181 177 162 167 187 210 219 209 196 224 264 75 72 44 24 13 39 105 115 110 107 116 130 133 134 114 106 117 127 117 113 109
43 50 49 44 47 48 51 53 49 44 42 33 17 12 9 14 21 18 32 18 16 6 3 8 10 13 11 5 356 347 335 338 345 345 339 325 292 281 266 238 243 241 252 257 254 247 232 219 209 208 211 224 221 204 191 172 187 193 190 202 210 220 238 214 72 60 95 82 68 72 73 78 86 92 107 120 134 139 131 151 175 125 127 139 172
59 54 45 40 40 38 37 43 46 47 48 37 28 16 4 3 353 7 20 21 11 1 9 16 10 14 12 4 359 6 349 346 353 356 359 360 346 311 306 287 275 272 267 263 242 233 252 242 224 213 204 202 208 220 212 197 202 193 194 191 201 215 207 169 157 120 99 101 85 88 62 61 75 88 93 95 87 64 87 124 133 129 143 167 137
69 68 63 52 44 38 33 38 39 41 38 32 28 27 4 6 4 4 10 18 14 14 15 17 12 3 358 5 3 1 353 346 348 350 351 359 11 343 303 293 271 267 266 265 272 262 240 245 242 233 224 211 206 214 217 211 205 195 167 192 197 222 178 163 179 159 159 142 122 81 83 54 52 69 72 74 65 68 91 123 144 137 146 157 167
75 78 81 79 75 74 62 49 46 42 42 40 37 34 24 15 6 14 11 6 18 19 18 9 4 352 352 351 352 352 351 342 336 341 342 342 349 8 330 284 276 274 274 272 265 268 269 256 250 240 229 226 222 219 218 217 220 196 184 198 208 173 143 168 165 151 138 127 117 108 96 89 79 69 70 69 73 79 83 84 116 133 136 143 140
67 62 58 58 60 64 69 64 67 63 52 46 40 35 24 23 24 14 10 15 15 12 7 8 0 346 341 342 346 337 339 341 331 331 333 333 332 341 345 300 274 279 276 268 266 262 256 259 252 244 237 230 223 221 219 219 219 198 205 215 138 150 173 162 148 135 108 115 122 127 128 123 116 106 98 87 79 77 81 84 81 83 107 147 150
70 64 55 50 46 46 46 48 48 50 51 62 68 50 34 28 19 18 17 10 11 4 3 358 358 347 338 335 334 329 330 329 330 325 324 324 324 325 321 311 292 276 261 266 265 264 261 258 258 254 237 231 228 224 219 211 197 196 196 179 177 170 151 138 144 148 144 146 143 145 145 142 137 133 119 105 94 96 95 94 98 96 89 85 97
97 89 82 75 59 51 53 46 44 37 38 38 46 47 31 24 16 15 1 6 1 356 345 349 346 346 336 322 322 326 323 327 320 319 316 318 321 320 320 315 300 272 268 262 270 266 269 263 257 257 242 232 230 227 221 201 201 208 204 194 172 154 145 151 164 157 148 148 144 144 152 152 122 116 122 125 124 115 108 105 94 93 100 90 77
87 78 71 64 54 45 43 43 41 35 23 37 36 28 9 10 4 342 353 351 351 347 319 322 329 317 319 316 312 311 312 313 310 310 314 319 321 320 318 314 308 291 274 266 259 261 261 267 268 259 247 237 232 230 228 222 219 214 210 189 158 156 163 164 156 150 152 159 155 145 143 148 137 128 127 121 119 104 95 81 83 81 88 97 92
70 69 66 62 60 62 53 23 11 7 11 29 43 28 345 334 335 324 333 331 327 326 315 317 315 318 314 314 316 313 318 318 316 316 320 324 325 325 322 317 305 288 256 265 269 271 274 275 266 255 248 244 240 227 223 226 224 213 199 174 170 169 164 157 154 159 158 151 151 153 149 132 123 135 138 139 129 134 132 119 104 69 83 97 77
63 57 48 43 44 50 44 20 359 347 355 354 352 350 341 357 351 342 340 331 328 316 313 311 317 317 318 318 314 315 314 313 311 309 313 320 323 325 326 324 318 313 295 273 265 263 263 260 251 246 259 260 252 265 245 175 148 174 179 181 179 172 170 169 165 150 149 145 138 116 114 111 109 118 142 137 127 131 124 121 110 114 103 92 97
55 36 28 23 18 17 13 0 354 345 341 352 348 343 340 346 347 331 327 322 322 316 309 309 305 306 310 312 311 312 307 306 300 300 308 315 314 313 313 310 309 310 308 301 294 288 296 315 337 79 135 136 171 137 204 187 189 174 180 180 171 161 139 116 103 121 118 123 112 111 109 125 133 135 127 122 123 121 118 111 113 110 141 139 72
45 31 13 4 353 336 335 338 349 352 347 348 344 329 324 332 327 314 297 280 283 294 302 292 284 279 284 289 303 303 301 292 281 281 290 293 294 300 307 305 304 300 289 294 296 340 26 43 110 178 176 181 183 193 185 169 181 185 170 159 151 146 143 148 140 139 140 131 135 137 140 127 126 131 127 116 124 131 111 101 117 129 107 73 111
31 10 15 3 342 346 344 349 358 352 348 343 339 331 297 289 295 300 301 300 296 290 273 265 274 288 286 264 242 270 290 287 291 295 294 293 292 288 283 278 276 273 282 272 208 153 131 174 186 190 226 320 280 212 184 179 167 164 168 153 147 144 144 138 133 137 134 130 132 132 138 137 138 143 135 133 123 97 120 132 132 121 91 84 88
13 0 3 353 350 349 356 353 349 351 349 347 342 336 330 313 282 287 289 291 291 287 287 281 280 274 263 280 268 253 270 282 289 288 289 289 290 294 299 298 290 282 261 182 304 179 197 195 214 204 189 157 157 139 340 318 227 159 160 160 153 144 136 128 132 130 128 127 129 133 142 145 147 149 142 142 135 131 96 96 103 84 105 120 103
2 345 343 338 346 354 350 348 347 354 341 342 336 334 333 328 323 280 271 287 293 292 288 288 287 288 289 286 292 297 291 290 291 294 295 297 298 302 304 301 294 283 239 200 223 231 201 206 198 178 139 109 75 69 86 85 326 303 190 145 147 144 136 137 140 131 130 126 131 140 144 139 140 142 133 129 121 113 106 91 92 100 98 89 111
349 328 329 328 340 343 345 342 339 337 327 323 317 313 318 323 324 324 313 268 267 281 291 291 293 292 290 291 289 284 285 289 292 294 294 295 302 306 306 300 290 239 135 159 217 226 214 199 182 181 164 155 128 105 98 76 50 24 339 352 121 118 121 125 126 120 124 131 135 138 134 128 123 115 113 121 119 113 110 103 94 93 92 68 9
299 281 299 307 329 330 331 330 329 319 309 305 306 313 311 311 315 322 324 329 330 294 249 281 304 308 304 299 297 299 301 301 300 300 301 302 304 306 303 303 276 175 161 194 202 225 214 207 198 186 180 150 138 128 114 99 99 97 84 68 58 80 97 104 106 113 118 129 128 132 128 127 129 120 110 95 99 108 103 109 105 99 93 129 356
304 285 283 272 275 308 314 323 318 313 316 316 315 315 308 311 314 317 321 324 322 321 325 326 323 314 309 311 311 311 312 313 311 308 308 307 308 301 262 276 296 213 273 230 209 213 206 214 205 194 173 160 156 147 138 138 137 133 115 112 110 108 107 110 114 117 119 119 117 115 121 123 121 119 125 121 109 101 118 130 135 127 133 129 255
299 278 297 307 296 305 300 297 293 290 289 293 295 295 300 307 312 308 308 303 306 312 313 312 309 313 311 308 306 312 318 321 318 311 307 310 309 253 227 260 266 252 225 234 215 222 210 209 187 184 176 165 159 161 159 155 154 150 149 146 145 142 135 124 123 123 121 117 117 120 116 114 122 119 108 104 119 133 150 154 150 155 160 232 227
253 257 279 263 261 281 299 297 287 279 279 288 295 302 301 301 297 299 303 308 309 306 302 310 321 324 324 308 314 324 325 323 319 309 311 330 332 193 224 250 250 263 256 242 232 212 205 207 189 170 167 162 167 164 158 149 146 145 150 143 140 134 134 136 131 122 118 118 124 125 122 127 128 122 119 115 117 129 136 140 138 172 203 227 237
210 207 231 247 283 317 322 305 299 300 304 309 311 303 301 306 312 316 315 313 312 311 311 316 319 316 317 314 331 330 320 319 332 342 346 353 28 48 319 258 224 227 244 244 224 223 224 206 190 181 169 157 149 143 139 135 137 140 135 126 120 123 124 119 116 116 120 120 119 122 122 121 123 115 110 122 139 156 179 169 170 208 247 184 185
222 244 259 284 300 308 300 304 308 321 319 322 316 322 321 327 326 325 322 316 311 304 304 308 308 305 308 317 320 321 334 343 348 334 330 330 324 339 309 280 257 252 244 234 213 202 200 187 176 149 147 142 133 128 127 124 122 112 108 107 110 115 109 111 119 120 115 117 119 126 124 127 118 115 120 123 151 168 177 189 190 178 222 253 233
234 284 289 308 327 319 309 299 307 317 318 327 325 337 334 331 321 318 314 311 303 304 311 312 310 314 315 324 323 329 336 327 321 322 332 339 333 335 348 324 303 282 273 255 221 177 150 146 144 140 134 122 116 111 111 112 107 107 108 113 117 109 112 117 115 113 114 120 125 129 125 124 118 116 124 141 164 170 163 168 195 210 216 215 240
198 251 288 299 313 327 321 328 332 326 323 329 323 327 314 307 309 301 295 292 301 311 319 310 306 314 317 328 333 338 312 318 318 329 343 339 333 350 356 353 356 348 335 8 89 95 97 98 83 91 100 105 103 109 106 104 104 101 97 92 90 99 104 106 110 115 124 128 130 127 122 120 129 129 148 182 122 111 157 187 220 233 216 201 226
171 245 294 322 354 340 323 315 330 327 327 327 338 323 309 305 293 283 298 317 320 323 322 329 323 326 333 350 359 1 4 350 340 348 352 352 360 358 360 2 4 12 9 20 37 60 77 81 81 92 99 97 100 101 92 91 100 106 104 107 115 120 120 120 125 133 132 129 130 133 133 135 144 150 139 117 128 155 150 219 224 224 197 322 188
171 208 271 351 338 313 309 312 334 336 332 343 341 324 315 296 304 321 337 333 342 348 354 347 342 347 349 353 351 358 17 0 2 4 8 4 355 10 12 4 11 18 29 45 57 77 80 79 72 58 64 75 82 91 106 118 117 115 119 123 131 132 128 126 128 131 125 124 128 129 131 135 129 110 111 122 127 156 221 54 13 352 187 229 326
164 128 20 354 312 322 323 335 335 326 330 329 334 329 323 338 10 8 10 9 1 357 355 356 356 356 354 352 358 9 12 10 15 16 13 13 15 17 14 6 11 33 38 41 50 67 81 79 77 68 64 64 67 76 87 94 106 116 124 129 130 134 140 147 147 145 139 128 124 122 119 112 109 108 99 93 136 118 76 64 309 297 291 328 344
130 109 44 357 352 8 324 344 348 339 331 348 359 343 8 25 16 5 9 15 9 5 10 11 8 8 5 3 1 7 8 14 19 23 23 18 18 16 16 21 23 31 41 45 40 60 75 76 78 79 77 75 75 73 69 64 66 78 99 124 139 146 149 143 138 135 130 125 122 118 116 116 112 107 115 122 116 123 125 189 222 263 349 25 38
149 127 77 4 338 339 341 342 334 349 1 1 343 353 27 31 27 9 4 19 19 19 17 18 15 14 8 1 3 16 14 22 29 24 26 24 22 20 22 32 40 41 44 48 48 56 73 80 78 76 70 63 61 65 67 65 61 61 60 56 69 81 78 86 100 109 116 120 123 121 119 110 114 124 130 131 143 144 157 228 257 255 213 17 39
133 120 118 87 3 313 331 324 332 4 4 8 9 25 34 34 28 18 12 22 23 26 23 18 19 19 10 12 14 14 15 30 32 31 33 33 33 32 35 42 47 52 51 51 51 55 59 63 65 69 71 72 74 72 72 71 73 69 61 53 54 75 77 77 78 88 98 103 116 118 119 121 123 119 132 132 98 61 306 300 247 254 18 47 41
133 120 102 85 45 348 350 10 13 358 4 27 22 34 39 39 34 31 22 22 30 23 17 16 24 23 23 18 14 21 28 35 41 40 38 39 40 43 45 50 54 57 58 55 49 52 55 61 63 66 67 64 68 72 73 68 70 62 61 58 58 63 69 76 80 76 77 90 99 116 122 117 118 117 110 105 123 187 132 296 304 19 48 75 34
147 133 115 89 96 56 39 25 15 359 350 15 51 45 44 41 38 31 25 36 39 30 19 17 21 26 35 26 18 30 35 42 46 45 45 42 43 46 50 54 58 60 62 57 47 42 38 39 41 44 55 56 52 44 46 54 54 54 56 59 54 55 60 58 65 65 75 83 93 100 99 104 112 118 125 131 158 194 163 319 15 17 338 52 61
152 141 131 134 153 138 104 74 47 32 13 16 52 71 53 56 46 35 24 45 45 32 24 16 27 29 30 29 29 31 37 42 39 41 43 42 43 45 50 51 52 48 43 45 41 38 45 47 45 43 45 43 41 35 32 36 43 50 52 58 60 61 63 68 76 82 73 81 78 86 102 105 102 111 136 140 136 98 65 20 352 340 357 24 60
152 145 132 146 180 167 129 94 58 50 52 38 39 60 72 61 54 47 40 44 46 28 15 14 22 34 38 32 30 31 38 48 46 42 44 45 44 50 56 58 57 58 57 54 52 47 43 42 43 41 44 47 45 45 45 52 60 83 101 108 100 97 98 103 94 111 112 114 111 104 100 125 140 128 108 86 87 88 55 7 16 24 27 48 53